K1ADK-1 Weather Reports


time (UTC)temp
F
wind
direction
speed
knots
gust
knots
rain 1hr
in
rain 24hr
in
rain mn
in
humidity
%
barometer
mb
20260504175516 68 203 7.8 13.9 0.00 0.00 0.00 42 1011.1
20260504174516 67 203 7.0 14.8 0.00 0.00 0.00 39 1011.2
20260504173536 67 203 7.8 17.4 0.00 0.00 0.00 36 1011.4
20260504172516 68 225 5.2 13.0 0.00 0.00 0.00 39 1011.4
20260504171516 67 203 4.3 11.3 0.00 0.00 0.00 41 1011.6
20260504170516 67 203 7.0 14.8 0.00 0.00 0.00 39 1011.7
20260504150516 66 225 7.0 14.8 0.00 0.00 0.00 35 1013.0
20260504140516 63 225 6.1 12.2 0.00 0.00 0.00 41 1012.9
20260504130516 59 225 4.3 11.3 0.00 0.00 0.00 47 1013.5
20260504110516 51 225 3.5 8.7 0.00 0.00 0.00 55 1013.9
20260504100515 49 225 1.7 3.5 0.00 0.00 0.00 55 1013.5
20260504081515 49 225 1.7 4.3 0.00 0.00 0.00 53 1012.9
20260504080515 50 225 1.7 3.5 0.00 0.00 0.00 53 1012.9
20260504050537 48 203 0.9 2.6 0.00 0.00 0.00 58 1012.2
20260504045517 48 225 1.7 3.5 0.00 0.00 0.00 58 1012.3
20260504044537 48 225 1.7 3.5 0.00 0.00 0.00 58 1012.2
20260504043517 47 248 0.9 2.6 0.00 0.00 0.00 58 1012.1
20260504042517 46 225 0.9 5.2 0.00 0.00 0.00 58 1012.1
20260504041517 45 0.0 1.7 0.00 0.00 0.00 60 1012.1
20260504040537 45 225 0.9 2.6 0.00 0.00 0.00 60 1012.0
20260504035517 44 0.0 0.9 0.00 0.00 0.00 62 1012.1
20260504034517 45 0.0 0.0 0.00 0.00 0.00 61 1012.0
20260504033517 45 0.0 0.0 0.00 0.00 0.00 60 1011.8
20260504032517 46 0.0 0.0 0.00 0.00 0.00 61 1011.9
20260504031537 46 0.0 0.0 0.00 0.00 0.00 60 1011.9
20260504030517 46 0.0 0.0 0.00 0.00 0.00 59 1012.0
20260504025516 46 0.0 1.7 0.00 0.00 0.00 57 1012.0
20260504024517 46 0.0 0.9 0.00 0.00 0.00 54 1012.0
20260504023517 47 0.0 0.0 0.00 0.00 0.00 53 1012.1
20260504022517 47 0.0 0.0 0.00 0.00 0.00 55 1012.0
20260504021516 47 0.0 0.0 0.00 0.00 0.00 52 1011.9
20260504020516 48 0.0 0.0 0.00 0.00 0.00 52 1011.8
20260504015517 48 0.0 0.0 0.00 0.00 0.00 52 1011.9
20260504014517 49 0.0 0.0 0.00 0.00 0.00 53 1011.7
20260504013517 49 0.0 0.0 0.00 0.00 0.00 52 1011.7
20260504012517 50 0.0 0.0 0.00 0.00 0.00 50 1011.6
20260504011517 51 0.0 0.0 0.00 0.00 0.00 50 1011.5
20260504010557 51 0.0 0.0 0.00 0.00 0.00 48 1011.4
20260504005516 52 0.0 0.0 0.00 0.00 0.00 47 1011.4
20260504004536 52 0.0 0.0 0.00 0.00 0.00 44 1011.1
20260504003537 53 0.0 0.0 0.00 0.00 0.00 44 1011.0
20260504002516 54 0.0 0.0 0.00 0.00 0.00 41 1010.8
20260504001517 55 0.0 0.0 0.00 0.00 0.00 38 1010.5
20260504000516 55 0.0 0.9 0.00 0.00 0.00 37 1010.5
20260503235517 56 0.0 0.9 0.00 0.00 0.00 35 1010.4
20260503234517 56 0.0 1.7 0.00 0.00 0.00 34 1010.4
20260503233536 57 270 0.9 2.6 0.00 0.00 0.00 33 1010.3
20260503232516 57 293 1.7 4.3 0.00 0.00 0.00 31 1010.1
20260503231536 57 270 1.7 7.0 0.00 0.00 0.00 31 1010.1
20260503230516 57 293 2.6 7.8 0.00 0.00 0.00 30 1010.0
20260503225516 58 315 2.6 5.2 0.00 0.00 0.00 30 1010.0
20260503224516 58 315 4.3 9.6 0.00 0.00 0.00 30 1009.9
20260503223516 58 270 3.5 11.3 0.00 0.00 0.00 30 1009.9
20260503222516 58 315 3.5 7.8 0.00 0.00 0.00 31 1009.7
20260503221516 58 315 4.3 9.6 0.00 0.00 0.00 32 1009.7
20260503220536 58 293 4.3 12.2 0.00 0.00 0.00 31 1009.8
20260503215516 58 315 2.6 7.8 0.00 0.00 0.00 32 1009.8
20260503214516 58 270 4.3 13.0 0.00 0.00 0.00 29 1009.8
20260503213516 58 315 6.1 13.0 0.00 0.00 0.00 30 1009.8
20260503212536 58 315 5.2 10.4 0.00 0.00 0.00 30 1009.6
20260503211516 58 315 7.0 13.9 0.00 0.00 0.00 30 1009.7
20260503210516 58 315 5.2 11.3 0.00 0.00 0.00 32 1009.7
20260503205516 58 315 5.2 11.3 0.00 0.00 0.00 33 1009.7
20260503204516 57 293 6.1 13.9 0.00 0.00 0.00 33 1009.7
20260503203516 57 315 7.0 13.0 0.00 0.00 0.00 32 1009.6
20260503202516 58 315 4.3 10.4 0.00 0.00 0.00 33 1009.7
20260503201516 57 270 3.5 9.6 0.00 0.00 0.00 33 1009.8
20260503200516 57 315 6.1 14.8 0.00 0.00 0.00 34 1009.9
20260503195516 56 293 5.2 15.6 0.00 0.00 0.00 34 1009.9
20260503194516 56 293 4.3 12.2 0.00 0.00 0.00 34 1010.0
20260503193516 56 315 7.8 20.0 0.00 0.00 0.00 35 1010.1
20260503192516 56 315 7.0 17.4 0.00 0.00 0.00 36 1010.1
20260503191536 55 315 6.1 10.4 0.00 0.00 0.00 38 1010.2
20260503190516 54 315 7.8 17.4 0.00 0.00 0.00 37 1010.2
20260503185516 54 315 8.7 15.6 0.00 0.00 0.00 36 1010.3
20260503184516 55 315 8.7 16.5 0.00 0.00 0.00 35 1010.3
20260503183516 55 293 7.8 19.1 0.00 0.00 0.00 36 1010.3
20260503182516 54 315 9.6 18.2 0.00 0.00 0.00 35 1010.4
20260503181516 56 315 6.1 15.6 0.00 0.00 0.00 36 1010.4
20260503180516 55 315 7.8 13.9 0.00 0.00 0.00 34 1010.2